Probability
0 0 0 0 0 0 0 0 0 0 0 0 0 0 0 0 0 0 0 0 0 0 0 0 0 0 0 0 0 0 0 0 0 0 0 0 0 0 0 0 0 0 0
0 0 0 0 0 0 0 0 0 0 0 0 0 0 0 0 0 0 0 0 0 0 0 0 0 0 0 0 0 0 0 0 0 0 0 0 0 0 0 0 0 0 0
0 0 0 0 0 0 0 0 0 0 0 0 0 0 0 0 0 0 0 0 0 0 0 0 0 0 0 0 0 0 0 0 0 0 0 0 0 0 0 0 0 0 0
0 0 0 0 0 0 0 0 0 0 0 0 0 0 0 0 0 0 0 0 0 0 0 0 0 0 0 0 0 0 0 0 0 0 0 0 0 0 0 0 0 0 0
0 0 0 0 0 0 0 0 0 0 0 0 0 0 0 0 0 0 0 0 0 0 0 0 0 0 0 0 0 0 0 0 0 0 0 0 0 0 0 0 0 0 0
0 0 0 0 0 0 0 0 0 0 0 0 0 0 0 0 0 0 0 0 0 0 0 0 0 0 0 0 0 0 0 0 0 0 0 0 0 0 0 0 0 0 0
0 0 0 0 0 0 0 0 0 0 0 0 0 0 0 0 0 0 0 0 0 0 0 0 0 0 0 0 0 0 0 0 0 0 0 0 0 0 0 0 0 0 0
0 0 0 0 0 0 0 0 0 0 0 0 0 0 0 0 0 0 0 0 0 0 0 0 0 0 0 0 0 0 0 0 0 0 0 0 0 0 0 0 0 0 0
0 0 0 0 0 0 0 0 0 0 0 0 0 0 0 0 0 0 0 0 0 0 0 0 0 0 0 0 0 0 0 0 0 0 0 0 0 0 0 0 0 0 0
0 0 0 0 0 0 0 0 0 0 0 0 0 0 0 0 0 0 0 0 0 0 0 0 0 0 0 0 0 0 0 0 0 0 0 0 0 0 0 0 0 0 0
0 0 0 0 0 0 0 0 0 0 0 0 0 0 0 0 0 0 0 0 0 0 0 0 0 0 0 0 0 0 0 0 0 0 0 0 0 0 0 0 0 0 0
0 0 0 0 0 0 0 0 0 0 0 0 0 0 0 0 0 0 0 0 0 0 0 0 0 0 0 0 0 0 0 0 0 0 0 0 0 0 0 0 0 0 0
0 0 0 0 0 0 0 0 0 0 0 0 0 0 0 0 0 0 0 0 0 0 0 0 0 0 0 0 0 0 0 0 0 0 0 0 0 0 0 0 0 0 0
0 0 0 0 0 0 0 0 0 0 0 0 0 0 0 0 0 0 0 0 0 0 0 0 0 0 0 0 0 0 0 0 0 0 0 0 0 0 0 0 0 0 0
0 0 0 0 0 0 0 0 0 0 0 0 0 0 0 0 0 0 0 0 0 0 0 0 0 0 0 0 0 0 0 0 0 0 0 0 0 0 0 0 0 0 0
0 0 0 0 0 0 0 0 0 0 0 0 0 0 0 0 0 0 0 0 0 0 0 0 0 0 0 0 0 0 0 0 0 0 0 0 0 0 0 0 0 0 0
0 0 0 0 0 0 0 0 0 0 0 0 0 0 0 0 0 0 0 0 0 0 0 0 0 0 0 0 0 0 0 0 0 0 0 0 0 0 0 0 0 0 0
0 0 0 0 0 0 0 0 0 0 0 0 0 0 0 0 0 0 0 0 0 0 0 0 0 0 0 0 0 0 0 0 0 0 0 0 0 0 0 0 0 0 0
0 0 0 0 0 0 0 0 0 0 0 0 0 0 0 0 0 0 0 0 0 0 0 0 0 0 0 0 0 0 0 0 0 0 0 0 0 0 0 0 0 0 0
0 0 0 0 0 0 0 0 0 0 0 0 0 0 0 0 0 0 0 0 0 0 0 0 0 0 0 0 0 0 0 0 0 0 0 0 0 0 0 0 0 0 0
0 0 0 0 0 0 0 0 0 0 0 0 0 0 0 0 0 0 0 0 0 0 0 0 0 0 0 0 0 0 0 0 0 0 0 0 0 0 0 0 0 0 0
0 0 0 0 0 0 0 0 0 0 0 0 0 0 0 0 0 0 0 0 0 0 0 0 0 0 0 0 0 0 0 0 0 0 0 0 0 0 0 0 0 0 0
0 0 0 0 0 0 0 0 0 0 0 0 0 0 0 0 0 0 0 0 0 0 0 0 0 0 0 0 0 0 0 0 0 0 0 0 0 0 0 0 0 0 0
0 0 0 0 0 0 0 0 0 0 0 0 0 0 0 0 0 0 0 0 0 0 0 0 0 0 0 0 0 0 0 0 0 0 0 0 0 0 0 0 0 0 0
0 0 0 0 0 0 0 0 0 0 0 0 0 0 0 0 0 0 0 0 0 0 0 0 0 0 0 0 0 0 0 0 0 0 0 0 0 0 0 0 0 0 0
0 0 0 0 0 0 0 0 0 0 0 0 0 0 0 0 0 0 0 0 0 0 0 0 0 0 0 0 0 0 0 0 0 0 0 0 0 0 0 0 0 0 0
Height
5825 5823 5822 5820 5817 5815 5812 5809 5806 5802 5799 5796 5793 5790 5788 5785 5783 5780 5779 5777 5776 5775 5774 5774 5774 5774 5775 5776 5778 5780 5782 5784 5786 5788 5790 5793 5795 5798 5801 5803 5806 5809 5812
5823 5821 5820 5818 5816 5813 5811 5808 5805 5802 5799 5796 5793 5790 5787 5785 5782 5780 5778 5776 5775 5773 5772 5772 5772 5772 5772 5773 5774 5776 5778 5779 5781 5783 5785 5787 5789 5792 5794 5796 5799 5801 5804
5820 5819 5818 5816 5814 5812 5810 5807 5804 5801 5798 5796 5793 5790 5787 5784 5782 5779 5777 5775 5773 5772 5771 5770 5770 5770 5770 5770 5771 5773 5774 5775 5776 5778 5779 5781 5783 5785 5786 5788 5791 5793 5795
5817 5816 5815 5814 5812 5810 5808 5806 5803 5800 5798 5795 5792 5789 5787 5784 5781 5779 5776 5774 5772 5771 5770 5768 5768 5768 5768 5768 5768 5769 5770 5771 5772 5773 5773 5774 5776 5777 5779 5781 5782 5784 5787
5814 5813 5812 5811 5810 5808 5806 5804 5802 5799 5796 5794 5791 5789 5786 5783 5781 5778 5776 5773 5772 5770 5768 5767 5766 5766 5765 5765 5765 5766 5766 5767 5767 5768 5768 5769 5770 5771 5772 5773 5775 5776 5778
5809 5809 5809 5808 5807 5805 5804 5802 5800 5797 5795 5792 5790 5788 5785 5782 5780 5777 5775 5772 5771 5769 5767 5766 5764 5764 5763 5763 5763 5763 5763 5763 5763 5763 5763 5763 5763 5764 5765 5766 5767 5769 5771
5805 5805 5804 5804 5803 5802 5801 5799 5797 5795 5793 5790 5788 5786 5784 5781 5778 5776 5773 5771 5769 5767 5765 5764 5763 5762 5761 5760 5760 5759 5759 5759 5759 5759 5758 5758 5758 5759 5759 5760 5761 5762 5763
5799 5800 5800 5799 5799 5798 5797 5796 5794 5792 5790 5788 5786 5784 5782 5779 5777 5774 5772 5770 5767 5765 5763 5762 5761 5759 5758 5757 5757 5756 5755 5755 5754 5754 5754 5753 5753 5753 5753 5754 5754 5755 5755
5794 5794 5794 5794 5794 5794 5793 5792 5790 5789 5787 5786 5784 5782 5779 5777 5774 5772 5770 5768 5765 5763 5761 5760 5758 5757 5755 5754 5753 5752 5751 5750 5750 5749 5749 5748 5748 5747 5747 5747 5747 5748 5748
5787 5788 5788 5789 5789 5789 5788 5787 5786 5785 5784 5782 5780 5779 5777 5774 5772 5769 5767 5765 5763 5761 5759 5757 5756 5754 5752 5751 5750 5748 5747 5746 5745 5744 5743 5743 5742 5741 5741 5741 5741 5741 5741
5780 5781 5782 5782 5783 5783 5783 5782 5781 5781 5779 5778 5777 5775 5773 5771 5768 5766 5764 5762 5760 5758 5756 5754 5752 5750 5749 5747 5745 5744 5743 5741 5740 5739 5738 5737 5736 5736 5735 5735 5734 5734 5733
5772 5773 5774 5775 5776 5776 5776 5776 5776 5775 5774 5773 5772 5770 5769 5767 5765 5763 5760 5758 5756 5754 5752 5750 5748 5746 5744 5743 5741 5739 5738 5736 5735 5734 5733 5732 5731 5730 5729 5729 5728 5727 5726
5764 5765 5766 5767 5768 5769 5769 5769 5769 5769 5768 5768 5767 5765 5764 5762 5760 5758 5756 5754 5752 5750 5748 5746 5744 5742 5740 5738 5736 5734 5733 5731 5730 5728 5727 5726 5725 5724 5723 5722 5721 5720 5719
5755 5756 5758 5759 5760 5761 5762 5762 5762 5762 5762 5761 5761 5760 5758 5757 5755 5753 5751 5749 5747 5745 5743 5741 5739 5737 5735 5733 5731 5729 5727 5726 5724 5723 5721 5720 5719 5718 5717 5716 5715 5713 5713
5745 5747 5748 5750 5751 5752 5753 5754 5755 5755 5754 5754 5754 5753 5752 5751 5749 5748 5746 5744 5742 5740 5738 5736 5734 5731 5729 5727 5725 5723 5722 5720 5718 5717 5715 5714 5713 5711 5710 5709 5708 5707 5706
5734 5737 5739 5740 5742 5743 5744 5745 5746 5746 5746 5746 5746 5746 5745 5744 5742 5741 5739 5737 5736 5734 5732 5730 5728 5726 5723 5721 5719 5717 5715 5714 5712 5710 5709 5707 5706 5704 5703 5702 5700 5699 5698
5723 5725 5728 5730 5731 5733 5735 5736 5737 5737 5738 5738 5738 5737 5737 5736 5735 5734 5732 5730 5729 5727 5725 5723 5721 5719 5717 5715 5712 5710 5708 5706 5705 5703 5701 5700 5698 5697 5695 5694 5692 5691 5689
5711 5713 5716 5718 5721 5722 5724 5726 5727 5728 5729 5729 5729 5729 5729 5728 5727 5726 5724 5723 5721 5719 5718 5716 5714 5712 5710 5707 5705 5703 5701 5699 5697 5695 5693 5691 5690 5688 5687 5685 5683 5682 5680
5698 5701 5703 5706 5709 5711 5713 5715 5716 5717 5718 5719 5720 5720 5719 5719 5718 5717 5716 5715 5713 5711 5710 5708 5706 5704 5702 5700 5697 5695 5693 5691 5688 5686 5684 5682 5680 5679 5677 5675 5674 5672 5670
5685 5687 5690 5693 5696 5698 5701 5703 5705 5707 5708 5709 5710 5710 5710 5710 5709 5708 5707 5706 5704 5703 5701 5699 5697 5695 5693 5691 5689 5686 5684 5681 5679 5677 5675 5673 5671 5669 5667 5665 5663 5661 5659
5670 5673 5676 5679 5683 5686 5688 5691 5693 5695 5697 5699 5700 5700 5700 5700 5700 5699 5698 5697 5695 5694 5692 5690 5688 5686 5684 5682 5679 5677 5674 5672 5670 5667 5665 5663 5660 5658 5656 5654 5652 5649 5647
5655 5658 5662 5666 5669 5673 5676 5678 5681 5683 5685 5687 5688 5689 5689 5689 5689 5689 5688 5687 5686 5684 5682 5680 5679 5677 5674 5672 5669 5667 5664 5661 5659 5657 5654 5652 5650 5647 5644 5642 5639 5637 5634
5638 5642 5647 5651 5655 5659 5662 5665 5668 5670 5673 5675 5676 5677 5678 5678 5678 5678 5677 5676 5675 5674 5672 5670 5668 5666 5664 5661 5659 5656 5653 5651 5648 5646 5643 5641 5638 5635 5632 5629 5627 5624 5621
5622 5626 5631 5636 5640 5644 5648 5652 5655 5657 5660 5662 5664 5665 5666 5666 5667 5667 5666 5665 5664 5663 5661 5659 5657 5655 5653 5650 5647 5645 5642 5639 5637 5634 5631 5629 5626 5623 5619 5616 5613 5610 5606
5605 5610 5615 5620 5625 5629 5633 5637 5641 5644 5646 5649 5651 5652 5653 5654 5654 5655 5654 5654 5652 5651 5649 5648 5645 5643 5641 5638 5636 5633 5630 5627 5625 5622 5619 5616 5613 5609 5606 5603 5599 5596 5592
5589 5594 5600 5605 5610 5614 5618 5623 5626 5630 5633 5635 5638 5639 5640 5641 5642 5642 5642 5641 5640 5639 5637 5635 5633 5631 5629 5626 5624 5621 5618 5615 5612 5609 5606 5603 5600 5596 5593 5589 5585 5581 5577
Wind_Speed
12 13 14 14 15 16 17 17 17 17 17 16 16 15 15 14 13 12 11 9 8 7 6 6 7 7 8 10 13 14 16 17 18 20 22 24 25 26 28 29 30 31 33
12 13 13 14 14 15 16 17 17 17 16 16 16 15 15 14 14 13 12 10 9 8 7 6 7 7 8 9 11 13 14 16 17 19 21 23 25 26 27 29 30 31 33
13 13 13 14 14 15 15 16 17 16 16 16 16 15 15 15 14 13 13 11 10 9 8 7 7 7 8 9 10 12 13 15 17 18 20 21 24 25 26 28 30 31 32
13 13 13 13 14 14 15 15 16 16 16 15 15 15 15 15 14 13 12 12 11 10 9 8 7 7 8 9 10 11 12 14 15 17 18 20 22 24 25 27 28 30 31
15 14 14 14 14 14 15 15 16 16 15 15 15 15 15 15 14 14 13 12 11 11 10 9 8 8 8 9 10 11 12 13 14 16 17 19 20 22 24 25 27 28 30
16 16 15 15 14 14 15 15 15 15 15 15 15 15 15 15 15 15 14 13 12 11 10 10 9 9 9 10 10 11 12 13 14 15 16 17 18 20 21 23 25 25 27
18 17 16 16 15 15 15 15 15 15 15 15 15 15 15 16 16 15 15 14 13 12 11 11 10 10 11 11 11 12 12 13 14 15 15 16 17 19 20 21 23 25 26
20 19 18 17 16 16 16 16 15 15 15 15 15 15 15 16 16 15 15 14 14 13 13 12 12 12 12 12 12 13 14 14 15 16 17 18 18 19 20 21 22 24 25
22 21 20 19 18 17 17 16 16 16 15 16 15 15 15 16 16 16 15 15 14 14 14 13 13 13 13 13 14 14 15 15 16 17 18 18 19 19 20 21 21 22 24
24 23 22 21 20 19 18 18 17 17 16 16 16 16 16 16 16 16 16 15 15 15 15 14 14 15 15 15 15 15 15 16 16 17 18 18 19 19 20 21 21 21 23
26 25 24 22 22 21 20 19 19 18 18 17 17 17 17 17 17 17 16 16 16 16 16 16 16 16 16 16 16 16 17 17 17 17 18 18 19 19 20 20 20 21 21
29 27 26 25 24 23 22 21 21 20 19 19 18 18 18 18 17 17 17 17 17 17 17 16 17 17 17 17 18 18 18 18 18 18 19 19 19 19 20 21 21 22 22
31 30 29 27 26 25 24 24 23 22 21 21 20 20 19 19 19 18 18 18 18 18 18 18 18 18 18 18 19 19 19 19 20 20 20 20 20 21 21 21 22 22 23
33 32 31 30 28 28 27 26 25 24 24 23 22 21 21 20 20 20 20 20 19 19 19 20 20 20 20 20 20 20 20 20 20 21 21 21 21 22 22 22 22 23 23
34 34 33 32 31 30 29 28 27 26 26 25 24 23 23 22 22 22 21 21 21 21 21 21 21 22 22 22 22 22 22 21 21 21 21 22 22 22 23 23 23 24 24
37 36 35 34 33 32 31 30 29 29 28 27 26 26 25 24 24 23 23 23 23 22 22 23 23 23 23 23 23 23 23 23 23 23 23 23 23 24 24 25 25 26 26
39 38 37 36 35 34 33 32 32 31 30 29 28 27 27 26 25 25 25 25 24 24 24 24 24 24 24 25 25 25 25 25 25 25 25 25 25 26 26 26 27 27 28
41 40 39 38 37 36 35 34 33 33 32 31 30 29 29 28 27 27 26 26 26 26 26 26 26 26 27 27 27 27 27 27 27 27 27 27 27 28 28 28 29 29 30
43 42 41 40 39 38 37 36 35 34 34 33 32 31 30 29 29 28 28 28 28 28 28 28 28 28 29 29 29 29 29 29 29 29 29 29 29 30 30 31 31 32 32
45 45 43 42 41 40 39 38 37 36 35 34 33 33 32 31 30 30 30 30 30 30 30 30 30 30 31 31 32 32 31 31 31 31 31 31 31 32 32 33 34 34 35
47 47 46 45 43 42 41 39 38 37 36 35 34 34 33 33 32 31 31 31 31 31 32 32 32 33 33 33 33 33 33 32 32 32 32 33 33 33 34 35 36 36 37
50 48 48 47 45 44 43 42 40 39 38 37 36 35 35 34 34 33 33 33 33 33 34 34 35 35 35 35 35 35 34 34 34 34 34 35 35 36 36 37 38 39 39
51 51 49 49 48 46 45 44 42 41 40 39 38 38 37 36 36 35 35 35 35 35 36 36 36 36 37 37 36 36 36 36 36 36 37 37 37 38 39 39 40 41 42
52 52 51 50 49 48 47 46 45 44 43 41 40 39 39 38 38 37 37 37 37 37 37 38 39 39 39 38 37 38 38 38 38 38 38 39 39 40 41 41 42 43 44
51 51 51 50 50 50 49 47 46 46 44 43 42 41 40 40 40 40 40 40 39 40 40 40 40 40 39 39 39 40 39 39 39 39 40 40 41 42 42 43 44 44 45
51 50 51 51 50 49 49 48 47 46 45 44 44 43 43 42 42 41 41 41 41 41 41 41 40 40 40 40 40 40 40 40 40 40 41 41 42 42 43 43 44 45 46
Wind_Direction
312 321 326 331 336 341 344 347 350 353 355 355 356 357 358 358 357 354 350 344 338 328 313 298 280 266 257 249 246 246 245 242 242 241 241 242 243 244 243 243 243 243 242
305 314 320 326 331 336 342 345 347 349 352 354 355 355 356 356 355 354 352 348 342 335 321 308 294 278 266 257 252 250 249 247 246 245 245 245 246 247 247 245 245 246 245
297 306 313 320 326 331 337 342 345 347 350 352 353 355 355 354 354 352 351 350 346 338 328 316 304 290 277 267 260 256 255 254 252 251 250 248 247 248 249 248 247 248 248
288 297 305 312 319 325 330 335 340 343 345 348 351 352 353 352 351 351 349 348 346 340 333 323 311 299 287 277 268 262 261 259 259 259 257 254 252 252 252 252 250 250 250
280 289 297 304 311 318 324 329 334 337 340 343 346 349 351 351 350 349 348 345 344 340 336 329 321 310 299 289 278 270 267 266 266 266 264 261 258 256 255 255 254 253 252
274 281 288 296 301 308 316 323 328 332 334 336 339 343 346 347 347 346 345 342 341 338 335 331 323 313 306 299 289 278 275 274 274 272 270 267 264 261 260 258 256 256 256
268 275 281 288 293 299 307 313 319 324 329 331 333 336 338 341 342 342 341 340 337 335 332 329 324 315 308 302 295 288 283 281 279 277 275 272 270 266 265 263 260 258 259
264 269 274 280 285 291 298 304 310 315 320 325 327 329 331 333 335 336 335 335 334 332 329 326 323 318 312 306 300 294 288 285 283 281 279 276 273 272 269 268 267 265 263
261 265 269 273 278 284 290 296 301 306 311 316 320 323 326 327 329 330 330 329 329 328 325 322 320 317 313 309 305 301 295 290 287 286 284 280 277 275 273 271 270 268 266
258 261 264 268 273 277 282 287 293 298 303 308 312 316 319 321 323 325 326 327 327 326 323 320 318 316 313 310 308 305 301 296 292 289 287 284 281 279 277 275 272 270 269
256 258 261 264 268 272 276 280 285 290 295 300 305 309 312 315 318 319 321 322 322 322 322 320 317 315 313 311 308 306 303 299 295 291 289 285 283 282 281 279 278 275 273
254 256 259 261 264 267 271 275 279 284 287 292 298 302 305 309 312 313 315 316 317 317 318 317 315 314 313 311 308 306 303 300 296 293 290 286 284 282 282 281 281 280 278
254 255 257 259 262 264 267 271 275 279 283 287 291 295 299 303 306 308 310 312 314 313 313 314 313 311 310 309 308 306 304 300 297 294 290 287 285 284 283 283 282 282 280
254 254 256 258 260 262 264 267 271 275 279 282 286 290 294 297 300 303 305 307 309 310 310 311 311 309 307 305 305 305 303 301 298 295 291 289 286 285 284 284 284 283 283
253 254 255 256 258 260 263 265 268 271 275 278 282 286 289 293 296 299 301 302 304 304 306 308 308 308 306 304 302 302 301 300 297 295 293 290 287 286 285 285 284 284 283
253 253 254 255 257 259 261 263 265 268 271 275 278 282 285 289 291 294 297 299 301 301 302 303 305 306 305 304 303 301 300 299 296 293 291 289 288 287 286 285 285 284 283
252 253 253 254 255 257 259 261 264 266 268 272 275 279 282 285 288 290 293 296 298 298 298 300 301 303 304 303 302 301 300 299 298 295 292 289 287 286 286 286 286 285 285
252 252 253 254 255 256 258 259 261 264 266 269 272 275 279 282 285 288 291 293 295 296 297 297 298 300 301 302 301 300 299 298 297 296 293 290 288 286 285 285 285 286 286
251 251 252 253 254 255 256 258 259 262 264 267 270 273 276 279 282 286 288 291 293 295 295 296 296 298 300 300 300 299 298 297 296 294 293 291 289 287 286 285 285 286 286
250 250 251 252 253 254 255 257 258 260 262 265 268 271 273 276 280 284 286 289 291 293 294 294 295 297 298 299 300 299 298 296 295 294 293 292 290 288 287 286 286 286 286
249 249 250 250 251 252 254 255 257 258 260 263 265 268 271 274 278 281 284 287 289 291 292 293 294 296 297 298 299 299 297 296 295 294 293 292 290 289 288 287 287 287 287
247 248 249 249 250 251 252 253 255 257 259 261 264 266 269 273 276 279 282 285 288 290 292 292 294 295 296 297 297 297 296 295 295 294 293 293 292 290 289 289 288 288 287
244 245 246 247 248 249 250 252 253 255 257 259 262 265 268 271 274 278 281 284 286 289 291 293 293 294 295 296 296 296 295 295 294 293 293 292 292 292 291 290 290 289 289
244 244 244 244 246 247 249 251 253 254 256 258 261 264 266 270 273 277 280 283 285 288 290 292 293 294 294 294 294 294 295 295 294 294 293 293 293 293 292 292 291 291 290
243 242 242 243 245 246 247 250 252 254 255 257 260 263 266 269 273 276 280 283 285 287 290 292 292 292 293 294 294 294 294 293 293 293 293 293 294 294 294 293 293 293 293
241 241 241 242 244 245 247 248 250 252 254 257 260 263 266 269 272 276 280 282 284 287 289 291 292 292 292 294 294 293 293 293 293 293 294 294 295 295 295 295 295 295 295